Location: Brompton
(51.4000°N, 0.5333°E)
Time: 09:57:03
(UTC+00:00)

Cosmos 1898 Rocket - Pass Details

Date: 03 October 2021
Orbit: 752 x 784 km, 74.0° (Epoch: 17 October)

Event Time Altitude Azimuth Distance (km) Brightness Sun altitude
Rises 18:06:24 0° 164° (SSE) 3,208 6.5 -6.4°
Reaches altitude 10° 18:09:07 10° 151° (SSE) 2,293 5.7 -6.8°
Maximum altitude 18:13:15 24° 99° (E) 1,537 4.5 -7.5°
Drops below altitude 10° 18:17:26 10° 46° (NE) 2,324 5.6 -8.1°
Sets 18:20:12 0° 33° (NNE) 3,262 6.5 -8.5°
